Regional Weather Roundup
Issued by NWS Nashville, TN

Home | Current Version | Previous Version | Text Only | Print | Product List | Glossary On
Versions: 1 2 3 4 5 6 7 8 9 10 11 12 13 14 15 16 17 18 19 20 21 22 23 24 25 26 27 28 29 30 31 32 33 34 35 36 37 38 39 40 41 42 43 44 45 46 47 48 49 50
000
ASUS44 KOHX 311615
RWROHX
MIDDLE TENNESSEE HOURLY WEATHER ROUNDUP
NATIONAL WEATHER SERVICE NASHVILLE TN
1100 AM CDT FRI OCT 31 2014

NOTE: "FAIR" INDICATES FEW OR NO CLOUDS BELOW 12,000 FEET WITH
NO SIGNIFICANT WEATHER AND/OR OBSTRUCTIONS TO VISIBILITY.

* THESE REPORTS ARE NOT UNDER NWS QUALITY CONTROL AND MAY NOT
  REPORT WEATHER SUCH AS PRECIPITATION AND FOG.


TNZ005>011-023>034-057-059-062>066-078-080-311700
...NORTHERN MIDDLE TENNESSEE...

CITY           SKY/WX    TMP DP  RH WIND       PRES   REMARKS
CLARKSVILLE    CLOUDY    50  45  83 N12       30.06S
CROSSVILLE     CLOUDY    48  40  73 W7        29.98F
GALLATIN       CLOUDY    49  48  96 NW7       30.03S
DICKSON        PTSUNNY   48  45  87 N14       30.05R
LEBANON        CLOUDY    49  47  93 N7        30.01S
LIVINGSTON     CLOUDY    46  42  86 NW5       30.00S
NASHVILLE      CLOUDY    51  46  83 NW8       30.04R
WEST NASHVILLE CLOUDY    50  48  93 NW10      30.04R
PORTLAND       CLOUDY    46  45  93 N7        30.02S
ROCKWOOD       CLOUDY    47  38  71 VRB6      29.97S
SMYRNA         CLOUDY    53  48  83 N10       30.04R
SPARTA         CLOUDY    48  46  93 CALM      30.00S
$$
TNZ056-058-060-061-075>077-079-093>097-311700
...SOUTHERN MIDDLE TENNESSEE...

CITY           SKY/WX    TMP DP  RH WIND       PRES   REMARKS
COLUMBIA       CLOUDY    52  52 100 CALM      30.02S
FAYETTEVILLE   CLOUDY    48  43  81 NW7       30.01F
MCMINNVILLE    CLOUDY    48  48 100 CALM      30.01S
MURFREESBORO   CLOUDY    51  46  83 NW5       30.02S
SHELBYVILLE    CLOUDY    52  48  87 CALM      30.02F
TULLAHOMA      PTSUNNY   46  43  87 NW6       30.02S
WINCHESTER     CLOUDY    48  46  93 CALM      30.02S
$$


...KEY TO REMARKS...
VSB - VISIBILITY IN MILES
WCI - WIND CHILL INDEX
HX  - HEAT INDEX




USA.gov is the U.S. government's official web portal to all federal, state and local government web resources and services.